Location: Dompnac
(44.5644°N, 4.1026°E)
Time: 20:27:41
(UTC+00:00)

NOSS 3-2 (A) - Pass Details

Date: 19 September 2020
Orbit: 795 x 1413 km, 63.4° (Epoch: 28 October)

Event Time Altitude Azimuth Distance (km) Brightness Sun altitude
Rises 19:15:04 0° 322° (NW) 3,944 7.6 -16.4°
Reaches altitude 10° 19:17:38 10° 325° (NW) 3,067 6.9 -16.8°
Maximum altitude 19:25:08 72° 50° (NE) 1,339 4.1 -18.1°
Enters shadow 19:30:21 26° 130° (SE) 2,397 5.0 -19.0°
